Location: Alexander
(41.3564°N, 81.5960°W)
Time: 09:08:48
(UTC+00:00)

Cosmos 1818 - Pass Details

Date: 24 January 2021
Orbit: 773 x 800 km, 65.0° (Epoch: 02 March)

Event Time Altitude Azimuth Distance (km) Brightness Sun altitude
Rises 22:59:36 0° 215° (SW) 3,260 7.8 -5.4°
Reaches altitude 10° 23:02:00 10° 217° (SW) 2,340 7.0 -5.8°
Maximum altitude 23:07:23 76° 303° (WNW) 818 3.8 -6.8°
Drops below altitude 10° 23:12:51 10° 30° (NNE) 2,371 5.6 -7.8°
Enters shadow 23:14:51 - 32° (NNE) 3,135 6.2 -8.1°
